GFSSGP_925_rhum_129.txt.gz
RH
18 22 26 28 30 34 29 20 19 14 13 11 14 17 18 27 32 38 45 37 34 38 55 64 59 55 52 53 54 59 64 66 64 60 60 63 71 79 80 77 75 73 70 68 71 73 76 76 75
19 31 30 34 33 28 18 22 17 15 13 14 15 14 18 30 39 56 46 38 26 38 53 54 44 45 45 45 50 57 64 67 68 65 63 63 67 70 75 74 69 71 74 75 74 72 74 75 76
31 37 48 41 41 28 20 17 14 14 13 12 13 12 26 34 42 45 30 28 34 44 42 33 33 39 37 38 42 53 61 67 72 68 66 66 65 68 71 70 68 69 70 71 71 72 72 72 74
26 41 49 47 40 29 21 17 16 14 11 10 11 17 18 29 40 29 25 27 33 34 29 26 35 37 31 34 39 49 57 64 73 72 69 68 67 68 68 68 69 72 78 76 70 72 73 75 74
33 48 57 44 39 26 19 16 14 16 15 15 14 16 19 33 29 25 19 22 22 28 24 28 39 30 29 33 37 46 55 63 74 76 72 69 68 68 67 68 67 71 73 80 75 71 78 79 79
46 46 53 53 39 25 22 18 17 18 16 18 16 17 25 26 35 30 20 21 22 20 26 34 40 29 27 30 37 44 52 58 70 78 75 72 71 68 66 69 64 68 73 72 74 76 79 82 87
54 61 55 41 41 36 28 18 20 20 20 20 16 17 23 43 31 32 40 46 37 27 38 46 41 31 30 29 32 42 48 53 66 78 77 74 70 67 70 69 64 67 70 75 70 81 79 86 90
56 55 53 48 46 43 24 23 17 20 23 17 14 18 26 31 41 45 50 58 46 39 55 53 44 38 37 38 34 40 46 57 72 77 78 75 72 72 70 62 62 64 65 74 67 75 79 82 86
29 44 56 43 36 32 24 26 19 19 22 20 17 18 27 42 52 61 67 75 67 64 69 60 49 45 41 42 44 47 51 61 79 80 78 76 72 69 68 64 60 60 66 71 69 71 76 79 81
29 47 44 35 29 30 26 27 24 24 23 22 21 20 15 37 55 72 80 83 88 80 64 52 46 45 50 53 57 59 64 69 79 82 81 76 67 56 61 66 61 65 68 73 71 73 76 79 78
29 37 30 28 27 28 28 29 24 27 24 22 23 20 17 27 39 56 70 77 77 76 74 57 46 41 50 61 72 77 75 74 80 80 81 77 66 56 59 64 63 70 71 75 74 78 80 81 77
19 17 18 22 18 17 19 22 18 16 18 18 20 19 19 18 28 40 46 58 77 76 64 62 51 46 53 59 88 90 85 83 78 78 82 80 64 65 62 63 63 64 60 75 72 76 79 82 80
15 17 21 18 16 16 15 16 15 15 13 15 18 21 20 20 18 15 22 31 47 66 87 76 62 54 58 61 89 99 100 96 94 76 81 82 71 67 73 67 71 71 67 74 71 75 78 80 81
24 25 25 18 17 14 15 16 17 11 14 15 19 19 20 21 20 18 16 18 30 40 66 82 67 57 55 62 68 90 99 100 100 84 78 83 79 69 74 69 74 74 70 79 70 72 74 77 80
26 31 25 17 11 14 15 14 13 12 14 11 10 15 15 21 19 21 16 14 13 22 39 72 77 68 57 56 60 69 86 99 99 97 80 81 83 77 78 69 72 77 66 73 75 74 72 75 85
27 23 28 18 16 13 14 18 13 12 12 11 10 9 10 14 19 17 15 15 14 15 57 59 80 84 73 63 61 67 64 73 93 98 89 81 85 83 82 80 69 80 68 78 78 75 72 74 80
31 36 34 29 20 23 18 24 16 14 13 13 11 9 9 10 12 13 13 14 14 14 39 62 72 84 80 73 73 78 79 77 83 83 91 80 83 85 86 87 76 82 81 81 79 77 68 77 85
38 39 32 31 26 22 28 25 20 18 18 18 17 14 11 8 9 11 12 13 13 14 16 46 69 74 83 92 96 98 98 90 85 80 79 76 82 86 89 86 78 85 89 86 81 74 76 78 78
30 33 33 24 21 26 30 31 26 23 22 21 18 16 14 11 8 8 10 13 14 15 15 30 65 79 93 100 100 100 100 93 89 89 81 80 84 88 90 89 86 90 90 88 84 79 80 88 87
30 34 32 28 26 33 37 38 29 25 23 21 19 16 13 11 8 9 10 10 12 14 16 19 49 72 86 97 97 96 100 100 97 98 98 87 88 88 91 90 90 92 94 94 88 85 96 95 91
29 33 35 42 34 30 32 36 27 23 21 21 20 18 15 15 10 8 8 9 10 13 17 23 40 64 80 94 97 95 99 100 100 100 100 96 94 89 90 92 91 90 94 95 90 88 87 95 99
42 32 35 36 42 54 36 68 44 32 28 23 20 19 17 15 10 8 8 8 9 9 13 17 36 62 78 94 97 94 90 95 95 99 100 100 98 90 89 86 89 79 86 93 86 83 92 91 96
37 33 39 40 48 51 52 68 44 30 31 26 22 19 17 12 9 8 9 8 8 8 16 24 28 61 75 95 95 94 89 90 96 99 100 100 100 93 91 79 88 87 90 90 86 92 98 92 90
33 41 46 54 59 84 56 59 46 35 28 26 22 19 16 13 10 9 9 8 11 14 10 27 38 66 77 93 96 93 88 94 98 99 100 100 100 100 98 74 86 89 96 99 94 87 94 100 92
42 50 78 74 64 55 37 59 46 33 28 21 22 20 18 15 15 18 12 11 55 51 51 54 68 82 91 97 97 94 90 94 93 99 98 100 100 100 100 82 90 93 95 99 95 93 87 100 100
48 81 89 95 71 66 54 71 41 26 41 49 40 18 57 97 98 94 92 95 92 96 97 97 92 95 100 99 98 95 98 93 90 97 100 100 100 100 94 88 87 91 93 100 100 99 94 100 100
60 79 52 93 78 87 57 48 34 33 69 73 82 79 90 88 90 95 91 92 94 98 100 100 100 100 100 98 100 97 97 94 90 92 92 94 96 94 90 78 84 89 91 96 97 100 100 100 100
55 47 80 90 92 80 67 51 50 48 74 61 81 87 83 87 88 96 96 97 98 99 100 100 100 100 100 100 100 98 96 92 89 90 91 92 91 86 92 92 93 90 92 93 93 100 100 100 100
61 73 66 76 93 94 84 53 36 64 72 77 84 85 92 94 94 97 96 95 98 99 100 100 100 100 100 97 100 98 97 95 93 92 90 88 83 85 86 86 89 90 85 82 83 85 95 100 100
46 45 58 96 85 71 90 72 62 81 75 82 84 87 89 92 95 95 93 92 94 96 98 100 100 100 100 100 96 94 96 92 96 95 90 86 86 88 85 89 88 89 86 83 90 99 100 100 100

GFSSGP_925_rhum_132.txt.gz
RH
17 19 25 25 24 29 20 15 21 15 13 12 14 16 26 29 38 45 62 54 30 48 57 57 58 60 62 61 61 62 61 59 57 59 66 68 71 72 72 73 72 72 74 75 75 74 74 73 74
25 31 27 36 25 17 11 20 19 15 15 16 15 14 20 26 38 51 59 44 29 40 52 54 58 60 59 59 59 62 62 62 61 58 62 70 73 74 76 74 73 74 76 75 76 75 74 74 72
36 35 43 42 41 20 15 15 18 16 15 13 14 15 21 30 38 48 36 44 34 37 44 49 56 58 55 56 57 59 62 63 62 60 62 66 72 76 76 73 75 75 74 74 74 72 75 74 71
28 41 50 46 37 30 22 18 18 19 15 15 18 18 18 22 39 36 31 38 29 34 41 44 48 49 48 56 56 59 63 64 64 63 64 68 74 77 76 74 74 76 77 76 75 76 75 74 74
34 51 60 54 47 35 24 19 17 20 19 20 19 24 21 22 35 35 29 28 24 36 43 43 37 38 46 57 52 55 60 63 65 65 66 69 72 75 75 75 75 77 75 76 73 72 76 74 78
46 48 57 54 45 30 26 21 20 22 20 22 21 23 21 21 22 44 58 35 33 40 42 38 34 34 45 51 46 50 55 59 64 66 67 71 70 72 73 73 75 74 72 70 69 73 79 78 81
48 55 54 47 39 41 32 22 23 21 24 22 18 23 19 24 32 32 64 66 44 53 51 47 45 45 47 43 43 46 51 56 63 66 68 70 72 70 74 70 74 77 74 67 72 78 81 78 76
63 59 60 52 48 45 31 26 23 22 25 19 17 22 24 26 38 43 44 69 60 57 49 47 51 62 61 48 44 46 48 52 60 65 70 73 74 71 76 73 69 75 75 70 78 81 83 86 82
36 52 61 47 40 35 27 30 23 20 24 22 20 20 19 34 61 63 56 62 82 72 53 48 59 66 62 53 51 50 46 48 58 69 73 75 74 74 74 74 71 69 72 71 74 78 84 80 85
34 52 49 39 32 32 28 30 26 24 25 25 24 22 17 38 60 69 75 78 80 90 99 92 91 92 70 66 66 62 58 60 69 71 74 76 75 74 74 65 66 63 70 74 71 71 82 86 84
33 36 33 24 25 20 24 24 20 26 23 19 18 22 18 18 45 62 65 69 72 78 81 100 99 100 90 83 78 70 65 72 76 73 72 76 74 70 72 68 65 73 83 81 79 81 85 86 83
22 19 18 19 18 19 17 16 20 16 16 16 19 15 18 24 24 50 58 53 64 71 71 77 100 100 100 94 93 77 69 75 82 76 73 76 74 61 64 69 65 70 77 78 82 81 85 84 82
20 20 22 20 24 18 16 17 17 15 13 16 17 19 24 24 22 17 22 43 46 54 63 67 70 98 100 100 100 100 96 98 95 81 75 75 74 58 61 66 64 72 74 81 80 80 84 85 84
24 26 29 23 18 15 18 18 15 13 14 14 14 14 16 21 23 19 18 17 34 42 50 46 62 66 93 99 98 100 100 100 100 96 77 75 75 58 64 65 65 69 66 70 75 78 85 84 83
28 28 22 21 19 18 19 15 17 17 17 16 15 14 12 11 10 18 17 18 15 15 28 49 47 47 68 96 97 91 96 100 99 100 83 81 78 63 65 69 72 72 69 67 77 74 80 83 82
26 27 34 24 23 20 21 24 18 16 16 16 17 15 14 14 12 10 9 14 16 14 17 39 53 58 57 69 88 91 99 100 99 100 99 82 80 76 68 73 72 78 74 72 77 74 82 85 86
36 39 34 30 24 22 19 21 13 15 18 19 19 18 16 15 13 12 10 8 9 15 13 19 51 67 71 73 78 84 91 100 99 99 100 97 85 81 75 73 75 75 82 79 74 82 78 87 94
38 38 34 35 27 23 27 28 22 21 23 24 22 20 18 17 14 11 10 9 8 9 13 14 41 70 80 88 94 94 99 100 99 98 99 100 97 83 84 79 81 73 85 80 84 85 84 81 88
30 35 40 30 24 30 33 34 31 24 24 25 25 23 21 19 15 13 11 10 8 8 13 20 53 74 99 100 100 99 98 100 100 100 100 100 100 92 86 86 86 86 86 89 85 89 84 88 97
32 38 38 30 28 31 34 34 26 25 25 23 23 22 21 19 17 15 12 10 8 8 9 18 44 80 94 98 98 96 96 99 100 100 99 100 99 98 86 87 88 89 89 99 92 87 91 88 94
36 40 38 42 35 32 33 36 24 23 25 24 22 21 21 20 19 18 16 13 10 9 10 10 17 63 86 93 99 96 99 99 100 100 99 99 99 95 86 87 88 90 90 100 97 92 82 94 100
45 32 39 44 46 55 41 69 37 31 28 26 28 31 21 20 18 18 16 15 11 8 7 10 10 27 72 93 96 94 93 90 95 98 100 99 100 92 86 91 92 92 96 100 100 96 90 83 98
39 37 44 41 52 61 56 69 54 32 34 29 53 70 44 19 20 18 16 14 10 8 9 9 11 20 53 90 89 93 91 87 90 98 100 100 99 98 93 95 93 90 93 93 94 98 98 88 91
34 45 48 56 65 74 55 60 46 43 35 42 61 73 73 69 20 18 15 13 10 8 9 13 18 21 52 86 91 92 87 88 95 98 99 99 100 100 98 96 95 92 91 88 83 83 88 91 90
46 69 76 65 57 51 37 60 54 44 31 57 60 68 66 77 82 68 65 45 14 24 26 27 32 32 47 82 95 96 88 89 93 93 97 99 99 100 100 99 100 98 87 90 87 86 87 93 92
64 70 90 99 71 58 52 76 62 29 40 47 61 59 78 83 90 91 81 88 99 93 78 65 56 46 58 89 94 97 90 96 94 94 93 96 99 99 100 100 100 100 83 92 91 93 90 90 89
52 65 56 91 78 87 62 48 32 54 63 68 74 65 82 90 92 91 92 95 96 99 100 100 99 100 94 98 97 99 93 100 98 97 96 98 99 100 99 100 100 96 91 91 99 100 100 97 93
49 45 76 91 97 79 58 50 60 80 83 76 75 84 87 85 87 90 89 94 97 98 99 100 99 100 100 100 100 100 99 97 99 100 100 100 100 100 100 100 100 99 87 89 100 100 100 100 99
58 73 70 79 91 89 85 56 60 72 75 88 83 88 92 88 87 92 86 92 97 97 99 99 100 99 100 100 100 100 100 100 100 100 100 100 96 92 94 99 92 94 90 95 99 100 100 100 100
48 48 66 98 87 84 93 72 45 53 66 78 95 94 92 88 89 91 91 91 93 95 97 98 100 100 100 100 100 100 100 86 78 97 98 100 100 97 98 100 94 82 92 95 96 95 96 100 100

GFSSGP_925_rhum_135.txt.gz
RH
17 20 26 22 12 14 10 11 17 14 14 12 13 13 14 16 28 27 51 47 47 43 50 52 53 55 59 58 58 57 56 55 58 65 66 63 62 66 65 67 68 75 78 72 74 76 72 71 69
22 30 26 24 10 8 7 12 15 14 14 15 13 14 16 19 28 33 53 50 47 45 52 52 53 54 59 61 60 60 59 57 56 58 63 64 69 70 70 69 71 74 74 74 75 76 73 71 72
35 34 23 21 19 8 8 12 14 15 15 16 16 15 16 18 21 36 48 53 53 52 49 52 52 54 58 62 64 64 62 60 58 59 64 68 72 72 73 73 75 76 75 76 74 75 73 74 75
32 30 33 20 15 17 12 14 17 16 16 16 17 18 16 16 26 41 37 52 86 53 51 51 50 53 57 61 65 66 64 62 59 60 68 72 75 76 77 77 78 78 76 74 74 74 73 75 77
34 32 29 30 28 27 23 19 18 20 19 20 18 21 21 20 28 41 38 52 86 88 54 50 48 50 54 60 61 64 66 64 62 62 63 68 72 76 78 79 78 78 77 76 74 74 74 76 74
30 33 27 25 27 27 23 20 19 21 21 20 19 20 19 18 26 42 46 49 74 88 67 48 50 50 53 55 53 63 66 66 66 65 66 68 70 76 77 75 74 73 72 70 71 76 78 77 80
30 32 35 35 31 29 27 22 22 23 22 20 17 21 19 15 37 46 60 46 65 77 71 72 67 62 60 54 54 65 67 66 66 67 68 68 70 75 75 73 74 74 74 69 71 76 78 79 80
40 36 45 41 34 30 28 24 22 20 18 18 18 19 20 15 39 52 64 62 58 69 66 72 88 95 80 67 61 67 68 66 68 68 69 69 69 73 74 73 76 77 75 70 69 76 78 82 82
30 39 42 39 39 32 23 22 20 16 19 15 15 18 14 16 39 62 68 63 58 62 68 80 95 92 81 82 90 75 72 71 71 72 73 71 75 76 76 74 72 76 73 69 68 72 82 78 83
29 39 39 34 31 25 21 16 15 14 14 12 13 11 14 12 15 35 55 56 70 73 64 82 96 97 98 98 96 97 92 93 91 84 79 73 73 73 82 75 70 74 75 72 70 74 75 80 85
29 27 29 22 21 17 14 11 10 10 8 9 13 14 13 14 17 24 49 59 57 71 74 62 85 97 97 98 99 96 96 99 99 97 78 74 76 77 73 72 82 71 78 77 74 74 72 77 81
19 19 18 16 16 19 15 13 12 13 10 12 13 14 12 12 13 14 17 25 60 65 60 56 62 86 98 98 99 100 100 99 100 95 85 76 80 82 75 70 66 75 88 77 80 82 80 78 87
22 18 20 21 18 15 16 15 15 12 12 14 13 12 11 11 11 12 12 15 24 64 67 41 51 67 95 98 98 100 100 99 96 99 91 86 82 79 74 74 64 86 86 78 81 79 92 95 83
23 24 24 18 16 16 18 15 16 13 14 12 11 10 10 12 11 10 12 12 14 20 59 60 44 39 50 86 95 100 100 99 100 98 88 89 82 68 73 70 69 75 89 79 80 78 80 96 93
26 22 19 16 20 19 15 11 13 13 14 13 14 14 14 13 12 12 12 11 10 13 20 66 75 45 46 40 72 98 96 100 100 100 89 85 85 70 63 67 81 77 83 86 80 79 87 88 95
23 24 18 18 21 18 14 8 15 10 13 15 15 16 16 16 15 14 13 12 11 11 14 16 60 82 67 62 64 73 80 99 99 100 100 84 86 80 64 67 66 72 81 86 80 77 86 87 91
25 22 28 24 20 21 17 17 14 12 17 18 17 17 18 18 16 15 15 14 13 11 12 14 22 68 85 82 83 90 88 89 96 97 100 98 86 85 66 73 75 67 77 76 79 86 86 91 94
31 31 29 27 20 20 23 21 15 15 17 20 19 19 19 19 18 17 17 17 15 14 13 14 14 49 83 90 98 98 99 92 94 91 99 100 98 88 77 79 80 78 82 87 91 98 98 91 96
28 31 27 22 21 26 23 21 20 19 19 20 20 21 21 26 24 22 19 19 19 16 16 14 18 26 86 95 97 99 97 97 98 97 98 99 99 98 93 89 85 85 97 96 96 98 98 100 100
25 26 27 26 26 26 23 26 22 20 19 20 21 24 40 37 38 43 39 21 20 19 17 16 17 20 74 82 90 92 93 96 93 99 100 97 98 98 97 95 88 89 98 100 95 98 100 96 100
27 30 32 32 30 29 33 20 24 16 19 19 21 36 40 42 44 41 46 35 20 21 18 17 16 20 54 79 91 89 93 91 98 100 98 98 99 99 99 100 93 93 98 98 99 99 94 91 100
32 28 30 36 37 36 35 33 24 23 20 21 26 37 43 48 46 52 58 53 22 22 20 18 16 18 42 80 89 87 92 87 92 93 94 99 99 99 100 100 99 96 100 99 99 99 94 84 93
29 30 35 37 41 49 44 48 28 17 25 31 40 46 50 50 58 68 69 49 21 19 22 19 18 18 26 83 83 88 87 83 86 92 96 98 100 100 99 100 100 99 100 100 99 99 100 92 82
32 40 42 48 54 53 39 44 28 26 40 56 54 56 59 66 81 85 76 75 43 20 22 20 20 19 22 73 86 88 85 84 85 93 96 99 100 100 100 97 100 100 99 100 100 99 100 99 90
38 49 34 32 36 24 33 38 33 38 51 53 58 63 66 81 84 88 83 86 83 78 23 20 20 18 29 65 82 89 86 86 86 91 93 98 100 100 100 99 100 100 98 99 98 98 97 99 97
50 59 50 51 45 39 41 51 30 42 39 45 53 76 79 86 85 88 83 86 90 94 88 35 24 26 42 63 83 88 89 88 87 89 87 91 96 98 100 100 100 100 100 100 93 85 88 99 100
45 48 48 72 62 72 46 34 29 41 48 56 67 87 92 95 94 91 84 85 90 95 97 99 73 48 52 67 86 88 90 89 90 89 89 90 94 98 100 100 100 100 100 100 93 92 95 97 93
43 39 57 61 79 70 42 41 59 57 63 69 93 95 94 94 94 95 92 88 90 95 98 100 100 100 99 87 90 90 93 94 96 96 96 96 95 98 100 99 100 99 100 100 96 96 99 100 100
49 53 54 62 67 75 66 40 49 62 66 94 95 96 97 95 94 95 96 88 89 92 97 98 100 100 100 99 99 100 100 99 98 98 97 98 99 100 100 100 100 100 100 100 99 98 100 100 100
42 46 60 74 77 70 68 54 44 57 66 92 95 96 95 94 96 95 95 89 91 94 96 96 98 100 100 100 100 100 100 100 100 100 100 100 99 99 100 100 100 100 100 97 97 100 100 100 100

GFSSGP_925_rhum_138.txt.gz
RH
26 27 26 18 10 6 6 7 8 10 10 10 11 11 12 12 18 26 21 46 48 52 70 59 54 56 55 52 53 53 55 53 57 64 69 66 66 66 67 70 78 84 77 74 73 71 72 72 73
25 27 20 11 8 7 6 7 9 10 11 12 11 12 13 19 15 17 27 42 58 56 70 72 56 57 56 54 56 56 55 55 61 66 68 66 66 68 67 71 76 81 76 75 76 76 72 72 72
36 28 13 9 8 9 7 7 10 11 11 13 12 12 14 16 15 19 24 42 56 58 66 71 56 59 59 57 59 59 57 55 61 67 67 65 66 68 68 70 74 79 78 74 75 75 73 73 72
23 16 12 13 10 8 7 9 10 11 12 14 13 14 12 15 16 20 35 54 53 60 65 76 62 60 59 58 59 61 59 56 58 62 66 67 72 70 72 73 75 78 77 72 74 75 74 76 77
19 13 15 14 13 11 12 11 14 14 15 17 15 17 16 14 14 25 38 57 53 60 68 86 65 64 59 59 61 61 61 59 60 63 69 73 75 72 73 75 76 77 76 73 71 72 75 77 77
16 16 18 16 14 15 15 15 15 16 16 16 16 17 15 13 14 29 39 57 71 68 78 87 74 66 64 64 65 62 63 61 61 66 72 76 75 74 75 76 75 74 72 73 71 74 76 74 78
18 19 18 19 19 18 19 17 19 19 16 15 14 16 14 13 12 22 44 58 70 78 84 86 90 86 64 68 69 68 68 65 65 66 70 74 75 76 75 75 73 74 73 74 71 76 78 72 76
18 18 20 18 18 18 20 17 15 14 14 12 11 15 16 10 10 12 28 56 64 72 78 81 83 88 89 89 79 77 74 76 70 71 74 76 77 77 75 72 73 73 73 72 72 77 79 75 76
20 18 16 18 20 18 18 15 11 10 11 9 10 12 8 9 9 12 19 34 57 67 71 73 76 81 90 93 90 87 83 86 82 82 81 82 82 84 79 81 75 74 72 70 71 72 74 72 77
16 16 14 21 21 19 14 11 9 8 6 6 6 8 9 9 9 11 15 19 31 48 61 66 71 74 85 93 98 100 96 90 91 91 95 86 77 78 73 80 74 74 73 71 71 70 70 72 87
16 12 17 15 13 12 10 7 5 5 4 6 9 10 8 8 8 8 10 12 14 36 51 61 68 73 78 78 93 97 94 94 86 85 88 81 84 80 76 79 77 81 77 76 75 70 83 83 87
14 14 15 11 11 10 8 8 8 6 6 8 10 9 7 6 7 7 8 9 11 15 42 56 61 71 77 68 80 96 100 96 96 95 92 84 86 82 72 70 69 71 72 66 70 75 82 86 89
12 12 11 11 10 10 11 10 10 7 5 9 8 6 6 7 8 9 9 9 10 12 17 39 57 65 71 78 70 86 97 100 100 98 99 86 75 76 76 68 68 66 67 69 70 72 82 85 86
12 11 11 12 10 10 12 9 7 7 9 8 6 6 7 8 9 10 11 10 10 9 11 17 43 64 68 68 72 76 90 98 100 99 97 97 76 76 74 71 68 65 71 69 69 78 74 76 85
16 13 10 11 11 10 11 5 9 7 8 6 8 8 9 9 11 11 12 12 12 11 10 12 18 50 69 69 67 69 71 88 84 99 98 99 87 80 73 71 66 66 71 76 77 82 86 76 79
13 13 8 12 12 10 11 6 8 7 7 8 10 10 11 11 12 13 15 15 14 14 14 13 14 19 59 69 64 66 59 70 66 75 98 98 94 83 78 69 68 68 73 78 80 93 100 98 95
12 7 11 10 9 10 10 10 7 6 8 10 11 12 13 13 14 17 21 22 21 18 16 16 16 17 27 60 68 68 65 64 65 68 80 100 98 88 77 68 68 74 74 76 92 94 93 98 91
10 12 12 11 7 11 11 9 7 7 9 11 13 14 14 15 20 21 23 25 30 30 25 19 20 19 22 36 68 66 69 67 63 65 73 94 100 90 84 69 72 81 74 77 82 98 81 77 85
16 14 10 8 11 16 10 10 9 10 10 12 14 15 16 22 21 24 29 33 40 39 34 24 20 21 20 26 50 65 71 70 68 65 72 84 100 93 86 71 82 92 79 81 88 84 73 69 72
13 12 10 12 11 16 14 15 11 11 13 14 16 20 24 26 25 29 40 44 51 48 44 36 21 18 18 18 38 59 67 72 68 70 74 83 94 98 86 77 83 100 86 86 90 76 71 75 89
12 15 15 15 14 14 19 9 12 11 11 15 23 26 26 34 39 46 49 56 60 61 50 41 24 18 16 15 27 55 70 71 72 72 79 80 92 99 94 82 80 99 89 96 98 78 78 83 94
14 17 18 19 20 15 20 12 12 12 17 25 28 28 35 47 57 57 61 67 73 74 72 57 34 20 16 16 23 48 68 69 69 71 76 80 87 99 99 90 82 93 88 86 98 81 75 71 87
17 20 24 26 26 26 22 23 9 13 29 31 28 30 43 49 56 71 75 76 76 80 83 82 31 23 18 16 19 46 58 65 64 65 73 83 91 98 100 99 96 96 97 86 91 89 81 76 66
21 26 25 30 30 26 19 21 13 26 35 35 36 45 63 55 65 77 83 85 79 86 90 89 38 22 19 18 18 50 62 60 57 69 78 78 90 99 99 100 98 97 98 96 98 98 88 76 75
22 24 15 16 20 16 19 24 19 30 32 36 55 71 71 64 72 76 88 94 84 88 92 93 56 22 20 18 20 53 61 66 67 70 78 80 90 98 100 100 100 99 98 97 98 100 98 89 81
32 32 29 38 18 19 19 30 19 26 29 46 76 79 69 73 70 74 87 95 86 89 92 95 94 24 18 17 23 46 58 57 57 56 61 76 88 96 99 100 100 99 99 98 99 100 100 93 90
35 36 35 66 40 44 24 19 14 29 35 47 76 77 74 74 78 78 87 95 86 88 93 97 97 89 20 17 24 40 57 57 57 58 64 71 80 91 99 100 100 100 98 97 99 100 100 100 94
34 31 53 45 56 40 20 21 30 44 47 55 73 72 73 77 80 89 91 96 90 86 94 96 98 99 100 73 43 51 59 63 63 64 69 72 74 87 98 100 100 100 99 99 100 100 100 100 99
40 43 40 46 46 46 39 26 38 48 50 63 68 67 70 76 82 94 95 97 94 84 91 94 96 98 98 100 100 88 72 67 67 77 78 80 87 92 94 99 99 100 99 100 100 100 99 100 100
28 35 40 56 55 44 47 42 31 38 51 63 65 65 65 68 75 84 92 97 93 90 93 94 95 98 98 100 100 100 100 100 99 95 89 87 86 91 100 100 100 100 100 100 100 100 99 100 100